Terminal Aerodrome Forecast
Issued by NWS

Home | Current Version | Previous Version | Text Only | Print | Product List | Glossary On
Versions: 1 2 3 4 5 6 7 8 9 10 11 12 13 14 15 16 17 18 19
000
FTUS43 KAPX 302300
TAFPLN
TAF
KPLN 302332Z 3100/3124 30008KT 5SM -SHRA SCT030 OVC060
     FM310100 VRB03KT P6SM SCT090
     FM311200 VRB04KT P6SM BKN060
     FM311400 24011KT P6SM BKN080
     FM311800 26007KT P6SM VCSH SCT040 OVC080=

USA.gov is the U.S. government's official web portal to all federal, state and local government web resources and services.